Location: Aldenham
(51.6667°N, 0.3500°W)
Time: 07:33:33
(UTC+00:00)

COSMOS 2406 - Pass Details

Date: 18 November 2025
Orbit: 845 x 859 km, 71.0° (Epoch: 12 December)

Event Time Altitude Azimuth Distance (km) Brightness Sun altitude
Rises 18:05:13 0° 329° (NNW) 3,418 6.7 -17.9°
Reaches altitude 10° 18:07:40 10° 331° (NNW) 2,480 5.9 -18.3°
Maximum altitude 18:13:23 79° 59° (ENE) 870 3.1 -19.2°
Enters shadow 18:19:02 10° 146° (SE) 2,458 5.3 -20.1°
